Danville, IN

2:00 AM EDT on April 29, 2017 (GMT -0400)
Vermilion County

Weather History for KDNV - June, 2013

Change the Weather History Date:

Thursday, June 13, 2013

  Actual Average (KLAF) Record (KLAF)
Temperature  
Mean Temperature 74 °F -  
Max Temperature 85 °F 82 °F 95 °F (1984)
Min Temperature 62 °F 59 °F 40 °F (1985)
Cooling Degree Days 9    
Growing Degree Days 24 (Base 50)    
Moisture  
Dew Point 61 °F    
Average Humidity 68    
Maximum Humidity 93    
Minimum Humidity 38    
Precipitation  
Precipitation 0.04 in - - ()
Sea Level Pressure  
Sea Level Pressure 29.85 in    
Wind  
Wind Speed 12 mph (North)    
Max Wind Speed 24 mph    
Max Gust Speed 32 mph    
Visibility 9 miles    
Events Rain    
Averages and records for this station are not official NWS values.
T = Trace of Precipitation, MM = Missing Value Source: NWS Daily Summary

Daily Weather History Graph

Daily Weather History Graph

Search for Another Location

Airport or City:

Trip Planner

Search our weather history database for the weather conditions in past years. The results will help you decide how hot, cold, wet, or windy it might be!

Date:

Astronomy

Jun. 13, 2013 Rise Set
Actual Time 5:20 AM CDT 8:20 PM CDT
Civil Twilight 4:47 AM CDT 8:53 PM CDT
Nautical Twilight 4:05 AM CDT 9:35 PM CDT
Astronomical Twilight 3:16 AM CDT 10:24 PM CDT
Moon 9:57 AM CDT (6/13) 11:26 PM CDT (6/13)
Length of Visible Light 16h 06m
Length of Day
15h 00m
Waxing Crescent, 22% of the Moon is Illuminated
Jun 13
Waxing Crescent
Jun 16
First Quarter
Jun 23
Full
Jun 29
Last Quarter
Jul 8
New

Hourly Weather History & Observations

Time (CDT) Temp. Heat Index Dew Point Humidity Pressure Visibility Wind Dir Wind Speed Gust Speed Precip Events Conditions
12:15 AM 86.7 °F 92.1 °F 71.1 °F 59% 29.62 in 10.0 mi West 13.8 mph 25.3 mph N/A Rain Rain
12:35 AM 85.6 °F 91.1 °F 71.2 °F 62% 29.62 in 10.0 mi West 12.7 mph 20.7 mph N/A Rain Rain
12:55 AM 85.3 °F 90.8 °F 71.4 °F 63% 29.62 in 10.0 mi West 15.0 mph 19.6 mph N/A Rain Rain
1:15 AM 84.6 °F 89.4 °F 70.9 °F 63% 29.65 in 10.0 mi North 24.2 mph 32.2 mph N/A Rain Rain
1:35 AM 72.9 °F - 68.9 °F 87% 29.65 in 10.0 mi NNE 11.5 mph 20.7 mph N/A Rain Rain
1:55 AM 71.8 °F - 69.1 °F 91% 29.66 in 7.0 mi North 3.5 mph - N/A Rain Rain
2:15 AM 71.6 °F - 68.9 °F 91% 29.65 in 7.0 mi NE 3.5 mph - N/A Rain Light Rain
2:35 AM 71.1 °F - 68.2 °F 91% 29.65 in 7.0 mi North 3.5 mph - N/A Rain Rain
2:55 AM 70.7 °F - 68.2 °F 92% 29.64 in 7.0 mi Calm Calm - N/A Rain Rain
3:15 AM 70.2 °F - 67.6 °F 92% 29.64 in 7.0 mi Calm Calm - N/A   Clear
3:35 AM 70.3 °F - 68.2 °F 93% 29.63 in 7.0 mi Calm Calm - N/A   Clear
4:15 AM 71.2 °F - 69.3 °F 93% 29.64 in 7.0 mi WSW 6.9 mph - N/A   Scattered Clouds
4:35 AM 71.6 °F - 68.9 °F 91% 29.67 in 7.0 mi WNW 8.1 mph - N/A   Clear
4:55 AM 71.6 °F - 68.7 °F 91% 29.69 in 7.0 mi NW 10.4 mph - N/A   Mostly Cloudy
5:15 AM 71.1 °F - 68.0 °F 90% 29.70 in 7.0 mi NNW 9.2 mph - N/A Rain Light Rain
5:35 AM 70.2 °F - 67.3 °F 91% 29.70 in 7.0 mi NNW 9.2 mph - N/A Rain Light Rain
5:55 AM 69.8 °F - 67.1 °F 91% 29.72 in 7.0 mi NNW 9.2 mph - N/A Rain Light Rain
6:15 AM 69.1 °F - 66.6 °F 92% 29.74 in 5.0 mi NNW 10.4 mph - N/A   Overcast
6:35 AM 68.2 °F - 65.3 °F 90% 29.75 in 7.0 mi North 15.0 mph - N/A   Overcast
6:55 AM 68.0 °F - 64.9 °F 90% 29.76 in 5.0 mi NNW 13.8 mph - N/A   Overcast
7:15 AM 68.0 °F - 64.8 °F 89% 29.77 in 5.0 mi North 15.0 mph 19.6 mph N/A   Overcast
7:35 AM 67.3 °F - 64.4 °F 90% 29.78 in 7.0 mi North 17.3 mph 21.9 mph N/A   Overcast
7:55 AM 67.5 °F - 63.5 °F 87% 29.80 in 7.0 mi North 15.0 mph - N/A   Overcast
8:15 AM 68.0 °F - 63.3 °F 85% 29.81 in 7.0 mi North 15.0 mph 19.6 mph N/A   Overcast
8:35 AM 68.4 °F - 63.7 °F 85% 29.82 in 7.0 mi NNW 12.7 mph - N/A   Overcast
8:55 AM 68.4 °F - 62.6 °F 82% 29.83 in 7.0 mi NNW 11.5 mph - N/A   Overcast
9:15 AM 68.9 °F - 63.5 °F 83% 29.83 in 7.0 mi NNW 15.0 mph 20.7 mph N/A   Overcast
9:35 AM 69.8 °F - 64.4 °F 83% 29.85 in 7.0 mi NNW 16.1 mph 20.7 mph N/A   Mostly Cloudy
9:55 AM 70.3 °F - 63.5 °F 79% 29.86 in 7.0 mi North 16.1 mph 24.2 mph N/A   Mostly Cloudy
10:15 AM 72.0 °F - 63.7 °F 75% 29.86 in 10.0 mi North 15.0 mph 20.7 mph N/A   Scattered Clouds
10:35 AM 73.4 °F - 61.7 °F 67% 29.87 in 10.0 mi North 18.4 mph 23.0 mph N/A   Clear
10:55 AM 74.3 °F - 59.4 °F 60% 29.87 in 10.0 mi NNE 17.3 mph 23.0 mph N/A   Clear
11:15 AM 75.7 °F - 59.7 °F 57% 29.89 in 10.0 mi NNE 17.3 mph 23.0 mph N/A   Clear
11:35 AM 77.0 °F - 59.4 °F 54% 29.89 in 10.0 mi NNE 15.0 mph 20.7 mph N/A   Clear
11:55 AM 77.7 °F - 60.3 °F 55% 29.90 in 10.0 mi North 16.1 mph 23.0 mph N/A   Clear
12:15 PM 78.1 °F - 58.8 °F 51% 29.90 in 10.0 mi North 13.8 mph 26.5 mph N/A   Clear
12:35 PM 79.2 °F - 59.0 °F 50% 29.90 in 10.0 mi North 12.7 mph 23.0 mph N/A   Clear
12:55 PM 79.7 °F - 58.6 °F 48% 29.91 in 10.0 mi NNE 17.3 mph 21.9 mph N/A   Clear
1:15 PM 79.9 °F - 56.5 °F 45% 29.92 in 10.0 mi North 15.0 mph 24.2 mph N/A   Clear
1:35 PM 79.9 °F - 56.8 °F 45% 29.92 in 10.0 mi NNW 12.7 mph 24.2 mph N/A   Clear
1:55 PM 79.9 °F - 55.8 °F 43% 29.92 in 10.0 mi North 21.9 mph 27.6 mph N/A   Clear
2:15 PM 79.9 °F - 54.9 °F 42% 29.93 in 10.0 mi North 18.4 mph 25.3 mph N/A   Clear
2:35 PM 80.4 °F - 52.9 °F 38% 29.94 in 10.0 mi North 17.3 mph 25.3 mph N/A   Clear
2:55 PM 80.1 °F 79.9 °F 53.1 °F 39% 29.94 in 10.0 mi North 16.1 mph 25.3 mph N/A   Clear
3:35 PM 79.7 °F - 52.9 °F 39% 29.95 in 10.0 mi North 19.6 mph 27.6 mph N/A   Clear
3:55 PM 79.3 °F - 54.5 °F 42% 29.95 in 10.0 mi North 19.6 mph 25.3 mph N/A   Clear
4:15 PM 79.2 °F - 52.2 °F 39% 29.95 in 10.0 mi North 17.3 mph 24.2 mph N/A   Clear
4:35 PM 79.2 °F - 53.6 °F 41% 29.95 in 10.0 mi North 20.7 mph 24.2 mph N/A   Clear
4:55 PM 78.4 °F - 53.4 °F 42% 29.95 in 10.0 mi NNE 16.1 mph 25.3 mph N/A   Clear
5:15 PM 78.3 °F - 54.1 °F 43% 29.95 in 10.0 mi North 11.5 mph 21.9 mph N/A   Clear
5:35 PM 78.1 °F - 54.7 °F 44% 29.94 in 10.0 mi North 11.5 mph 18.4 mph N/A   Clear
5:55 PM 77.7 °F - 54.5 °F 45% 29.94 in 10.0 mi North 11.5 mph 19.6 mph N/A   Clear
6:15 PM 77.2 °F - 54.5 °F 45% 29.94 in 10.0 mi North 11.5 mph 16.1 mph N/A   Clear
6:35 PM 76.6 °F - 54.5 °F 46% 29.94 in 10.0 mi NNE 9.2 mph - N/A   Clear
6:55 PM 76.3 °F - 54.9 °F 47% 29.95 in 10.0 mi NNE 10.4 mph - N/A   Clear
7:15 PM 74.7 °F - 56.3 °F 53% 29.96 in 10.0 mi NE 12.7 mph - N/A   Clear
7:35 PM 72.5 °F - 56.5 °F 57% 29.97 in 10.0 mi NNE 9.2 mph - N/A   Clear
7:55 PM 71.4 °F - 56.7 °F 60% 29.98 in 10.0 mi NNE 10.4 mph - N/A   Clear
8:15 PM 69.8 °F - 56.5 °F 63% 29.98 in 10.0 mi NNE 11.5 mph - N/A   Clear
8:35 PM 68.5 °F - 56.5 °F 65% 29.98 in 10.0 mi North 9.2 mph - N/A   Clear
8:55 PM 67.6 °F - 56.8 °F 68% 29.99 in 10.0 mi North 8.1 mph - N/A   Clear
9:15 PM 66.7 °F - 57.4 °F 72% 30.00 in 10.0 mi North 6.9 mph - N/A   Clear
9:35 PM 65.7 °F - 58.1 °F 77% 30.00 in 10.0 mi North 8.1 mph - N/A   Clear
9:55 PM 65.8 °F - 57.6 °F 75% 30.00 in 10.0 mi North 8.1 mph - N/A   Clear
10:15 PM 65.5 °F - 57.4 °F 75% 30.00 in 10.0 mi NNE 8.1 mph - N/A   Clear
10:35 PM 64.8 °F - 57.2 °F 76% 30.00 in 10.0 mi NNE 8.1 mph - N/A   Clear
10:55 PM 63.9 °F - 57.4 °F 79% 29.99 in 7.0 mi North 6.9 mph - N/A   Clear
11:15 PM 63.1 °F - 57.6 °F 82% 29.99 in 10.0 mi NNE 6.9 mph - N/A   Clear
11:35 PM 62.8 °F - 56.5 °F 80% 29.99 in 10.0 mi North 6.9 mph - N/A   Clear
11:55 PM 62.6 °F - 55.6 °F 78% 29.99 in 10.0 mi North 10.4 mph - N/A   Clear